Hourly Weather Abraveses

Today, 6 December, Sunday

Time Temperature Precipitation Wind Pressure Humidity
00:00 +5°C° 0 mm 1 mps 717 mmHg 93%
01:00 +4°C° 0 mm 1 mps 716 mmHg 93%
02:00 +3°C° 0 mm 0 mps 716 mmHg 93%
03:00 +3°C° 0 mm 0 mps 717 mmHg 93%
04:00 +4°C° 0 mm 0 mps 717 mmHg 92%
05:00 +4°C° 0 mm 0 mps 717 mmHg 91%
06:00 +5°C° 0 mm 1 mps 717 mmHg 91%
07:00 +6°C° 0 mm 1 mps 717 mmHg 91%
08:00 +6°C° 0 mm 1 mps 718 mmHg 91%
09:00 +6°C° 0 mm 1 mps 717 mmHg 90%
10:00 +7°C° 0 mm 1 mps 717 mmHg 88%
11:00 +6°C° 0 mm 2 mps 717 mmHg 87%
12:00 +7°C° 0 mm 2 mps 717 mmHg 88%
13:00 +7°C° 0 mm 2 mps 717 mmHg 89%
14:00 +7°C° 0 mm 2 mps 717 mmHg 89%
15:00 +7°C° 0.2 mm 2 mps 717 mmHg 92%
16:00 +7°C° 0.2 mm 2 mps 717 mmHg 95%
17:00 +7°C° 0.2 mm 2 mps 717 mmHg 98%
18:00 +7°C° 0.3 mm 2 mps 717 mmHg 98%
19:00 +7°C° 0.3 mm 2 mps 717 mmHg 98%
20:00 +8°C° 0.3 mm 3 mps 717 mmHg 98%
21:00 +8°C° 0.2 mm 3 mps 717 mmHg 98%
22:00 +8°C° 0.2 mm 3 mps 716 mmHg 98%
23:00 +9°C° 0.2 mm 3 mps 716 mmHg 98%

Tomorrow, 7 December, Monday

Time Temperature Precipitation Wind Pressure Humidity
00:00 +9°C° 0.2 mm 3 mps 716 mmHg 98%
01:00 +8°C° 0.2 mm 3 mps 716 mmHg 98%
02:00 +8°C° 0.2 mm 3 mps 716 mmHg 98%
03:00 +8°C° 0.2 mm 3 mps 716 mmHg 97%
04:00 +8°C° 0.2 mm 3 mps 716 mmHg 97%
05:00 +8°C° 0.2 mm 3 mps 716 mmHg 96%
06:00 +8°C° 0.1 mm 3 mps 716 mmHg 95%
07:00 +8°C° 0.1 mm 3 mps 716 mmHg 94%
08:00 +8°C° 0.1 mm 3 mps 716 mmHg 93%
09:00 +8°C° 0.2 mm 4 mps 717 mmHg 90%
10:00 +8°C° 0.2 mm 5 mps 717 mmHg 88%
11:00 +8°C° 0.2 mm 6 mps 717 mmHg 85%
12:00 +8°C° 0.2 mm 6 mps 717 mmHg 86%
13:00 +8°C° 0.2 mm 6 mps 716 mmHg 87%
14:00 +8°C° 0.2 mm 6 mps 716 mmHg 88%
15:00 +8°C° 0.2 mm 6 mps 716 mmHg 89%
16:00 +7°C° 0.2 mm 6 mps 716 mmHg 90%
17:00 +7°C° 0.2 mm 5 mps 716 mmHg 91%
18:00 +7°C° 0.1 mm 5 mps 716 mmHg 91%
19:00 +6°C° 0.1 mm 5 mps 716 mmHg 90%
20:00 +6°C° 0.1 mm 4 mps 716 mmHg 90%
21:00 +7°C° 0.2 mm 5 mps 716 mmHg 90%
22:00 +7°C° 0.2 mm 6 mps 716 mmHg 89%
23:00 +6°C° 0.2 mm 7 mps 716 mmHg 89%

Day after tomorrow, 8 December, Tuesday

Time Temperature Precipitation Wind Pressure Humidity
00:00 +7°C° 0.4 mm 6 mps 717 mmHg 88%
01:00 +5°C° 0.4 mm 6 mps 717 mmHg 87%
02:00 +6°C° 0.4 mm 5 mps 717 mmHg 86%
03:00 +6°C° 0.1 mm 4 mps 717 mmHg 87%
04:00 +5°C° 0.1 mm 4 mps 718 mmHg 89%
05:00 +5°C° 0.1 mm 3 mps 718 mmHg 90%
06:00 +5°C° 0.1 mm 3 mps 718 mmHg 90%
07:00 +5°C° 0.1 mm 3 mps 719 mmHg 90%
08:00 +5°C° 0.1 mm 3 mps 719 mmHg 89%
09:00 +7°C° 0.1 mm 3 mps 720 mmHg 84%
10:00 +7°C° 0.1 mm 4 mps 720 mmHg 78%
11:00 +8°C° 0.1 mm 5 mps 720 mmHg 73%
12:00 +8°C° 0.2 mm 4 mps 720 mmHg 73%
13:00 +8°C° 0.2 mm 4 mps 720 mmHg 73%
14:00 +8°C° 0.2 mm 4 mps 720 mmHg 73%
15:00 +7°C° 0 mm 3 mps 721 mmHg 79%
16:00 +6°C° 0 mm 2 mps 721 mmHg 85%
17:00 +5°C° 0 mm 2 mps 721 mmHg 91%
18:00 +5°C° 0 mm 1 mps 721 mmHg 92%
19:00 +5°C° 0 mm 1 mps 722 mmHg 93%
20:00 +5°C° 0 mm 1 mps 722 mmHg 94%
21:00 +4°C° 0 mm 0 mps 722 mmHg 94%
22:00 +3°C° 0 mm 0 mps 722 mmHg 93%
23:00 +3°C° 0 mm 0 mps 722 mmHg 93%

9 December, Wednesday

Time Temperature Precipitation Wind Pressure Humidity
00:00 +3°C° 0 mm 0 mps 722 mmHg 93%
01:00 +3°C° 0 mm 0 mps 722 mmHg 93%
02:00 +3°C° 0 mm 0 mps 722 mmHg 93%
03:00 +3°C° 0 mm 0 mps 722 mmHg 93%
04:00 +3°C° 0 mm 0 mps 722 mmHg 93%
05:00 +4°C° 0 mm 1 mps 722 mmHg 94%
06:00 +3°C° 0 mm 0 mps 723 mmHg 92%
07:00 +4°C° 0 mm 0 mps 723 mmHg 90%
08:00 +5°C° 0 mm 0 mps 723 mmHg 89%
09:00 +6°C° 0 mm 0 mps 724 mmHg 83%
10:00 +9°C° 0 mm 1 mps 724 mmHg 78%
11:00 +10°C° 0 mm 1 mps 724 mmHg 73%
12:00 +10°C° 0 mm 1 mps 724 mmHg 73%
13:00 +9°C° 0 mm 2 mps 723 mmHg 74%
14:00 +10°C° 0 mm 2 mps 723 mmHg 74%
15:00 +9°C° 0 mm 2 mps 723 mmHg 81%
16:00 +8°C° 0 mm 2 mps 723 mmHg 87%
17:00 +8°C° 0 mm 1 mps 723 mmHg 93%
18:00 +8°C° 0.3 mm 2 mps 723 mmHg 95%
19:00 +8°C° 0.3 mm 2 mps 723 mmHg 96%
20:00 +8°C° 0.3 mm 2 mps 723 mmHg 98%
21:00 +9°C° 0.9 mm 2 mps 722 mmHg 98%
22:00 +10°C° 0.9 mm 3 mps 722 mmHg 98%
23:00 +10°C° 0.9 mm 3 mps 722 mmHg 98%

10 December, Thursday

Time Temperature Precipitation Wind Pressure Humidity
00:00 +11°C° 0.7 mm 3 mps 722 mmHg 98%
01:00 +11°C° 0.7 mm 3 mps 721 mmHg 98%
02:00 +11°C° 0.7 mm 4 mps 721 mmHg 97%
03:00 +11°C° 0.3 mm 3 mps 721 mmHg 98%
04:00 +11°C° 0.3 mm 3 mps 721 mmHg 98%
05:00 +12°C° 0.3 mm 2 mps 721 mmHg 98%
06:00 +12°C° 0.1 mm 2 mps 721 mmHg 98%
07:00 +12°C° 0.1 mm 2 mps 721 mmHg 98%
08:00 +12°C° 0.1 mm 2 mps 722 mmHg 98%
09:00 +13°C° 0.1 mm 2 mps 722 mmHg 96%
10:00 +13°C° 0.1 mm 2 mps 722 mmHg 94%
11:00 +13°C° 0.1 mm 3 mps 722 mmHg 92%
12:00 +13°C° 0.3 mm 3 mps 722 mmHg 93%
13:00 +13°C° 0.3 mm 3 mps 721 mmHg 95%
14:00 +13°C° 0.3 mm 3 mps 721 mmHg 96%
15:00 +13°C° 0.9 mm 3 mps 721 mmHg 97%
16:00 +13°C° 0.9 mm 3 mps 721 mmHg 98%
17:00 +13°C° 0.9 mm 3 mps 721 mmHg 98%
18:00 +13°C° 0.4 mm 3 mps 722 mmHg 98%
19:00 +13°C° 0.4 mm 3 mps 722 mmHg 98%
20:00 +13°C° 0.4 mm 3 mps 722 mmHg 98%
21:00 +13°C° 0.2 mm 3 mps 722 mmHg 98%
22:00 +13°C° 0.2 mm 3 mps 722 mmHg 98%
23:00 +13°C° 0.2 mm 3 mps 722 mmHg 98%

11 December, Friday

Time Temperature Precipitation Wind Pressure Humidity
00:00 +13°C° 0.1 mm 3 mps 723 mmHg 98%
01:00 +12°C° 0.1 mm 3 mps 723 mmHg 98%
02:00 +12°C° 0.1 mm 3 mps 723 mmHg 98%
03:00 +13°C° 0 mm 2 mps 723 mmHg 98%
04:00 +13°C° 0 mm 2 mps 723 mmHg 98%
05:00 +13°C° 0 mm 2 mps 723 mmHg 98%
06:00 +13°C° 0 mm 2 mps 723 mmHg 98%
07:00 +13°C° 0 mm 2 mps 723 mmHg 97%
08:00 +13°C° 0 mm 2 mps 724 mmHg 96%
09:00 +13°C° 0 mm 2 mps 724 mmHg 94%
10:00 +13°C° 0 mm 3 mps 724 mmHg 91%
11:00 +13°C° 0 mm 3 mps 724 mmHg 88%
12:00 +13°C° 0.1 mm 3 mps 724 mmHg 89%
13:00 +13°C° 0.1 mm 3 mps 723 mmHg 89%
14:00 +13°C° 0.1 mm 4 mps 723 mmHg 89%
15:00 +12°C° 0.1 mm 3 mps 723 mmHg 91%
16:00 +12°C° 0.1 mm 2 mps 723 mmHg 94%
17:00 +12°C° 0.1 mm 2 mps 723 mmHg 96%
18:00 +12°C° 0.1 mm 2 mps 723 mmHg 96%
19:00 +12°C° 0.1 mm 2 mps 723 mmHg 96%
20:00 +12°C° 0.1 mm 2 mps 723 mmHg 96%
21:00 +12°C° 0.1 mm 2 mps 723 mmHg 96%
22:00 +12°C° 0.1 mm 2 mps 723 mmHg 96%
23:00 +12°C° 0.1 mm 2 mps 723 mmHg 96%
Show more

We Need Your Consent

Meteoprog and our Service Providers may store and access personal data such as cookies, device identifiers or other similar technologies on your device and process such data to personalise content and ads, as well as provide social media features and to analyse the traffic.

  • Store and/or access information on your device

    Cookies, device identifiers or other information can be stored or accessed on your device for the purposes indicated above.

  • Personalised ads and content, ad and content measurement, audience insights, and products development

    Ads and content can be personalised based on a profile. More data can be added to better personalise ads and content. Ad and content performance can be measured. Insights about the audience who saw the ads and content can be derived. Such data can be used to develop or improve user’s experience, systems and software.

By clicking ‘I Agree’ you will allow the use of indicated cookies, device identifiers, web beacons or other similar technologies. Your settings can be changed in the browser on your device.

For certain purposes, legitimate interests may be relied on, rather than consent. You can read more about this in our Privacy and Cookie Policy.